User: anonymous   Login
Location: Unspecified
(0.0000°N, 0.0000°E)
Time: 15:42:36
(UTC+00:00)
Language:

COMSATBw-1 - Orbit

View from above orbital plane
View from above orbital plane
View from above satellite
View from above satellite

Ground track
Ground track

The orbit data is extracted from the following two-line orbital elements,

1 35943U 09054B   21174.84731227  .00000022  00000-0  00000-0 0  9995
2 35943   0.0256 354.4225 0004177 110.1609 175.7105  1.00274555 43069
Epoch (UTC): 23 June 2021 20:20:07
Eccentricity: 0.0004177
inclination: 0.0256°
perigee height: 35768 km
apogee height: 35803 km
right ascension of ascending node: 354.4225°
argument of perigee: 110.1609°
revolutions per day: 1.00274555
mean anomaly at epoch: 175.7105°
orbit number at epoch: 4306

The dashed part of the orbit path shows where the satellite is in the earth's shadow,  

DLR